Find OneWeb SL0326

NORAD ID: 49195 Int'l Des: 2021-083 Owner: ONEWEBN Country: UK Constellation: oneweb operational
LEOCIRCULARPOLARONEWEB_TYPE

現在のビュー

3D地球を読み込み中...

About OneWeb SL0326

OneWeb SL0326 (NORAD 49195) is a oneweb constellation satellite launched Sep 14, 2021 by ONEWEBN of UK. It operates in LEO, CIRCULAR, POLAR, ONEWEB_TYPE orbit with a mass of 148.00 kg.

OneWeb SL0326について

説明を読み込み中...

次回通過

Passes for default location (London). Set your location on the main map for personalized predictions.

高度履歴

Loading altitude history...

軌道要素

1 49195U 21083K 26166.48461235 .00000006 00000-0 -18297-4 0 9994
2 49195 87.9169 335.7944 0002021 85.8807 274.2556 13.18685314229774
Epoch: Jun 15, 2026 • Age: 8 hours

現在のステータス

高度 1196.4 km
速度 7.25 km/s
衛星直下点 -15.18°S, 46.33°W
打ち上げ日 Sep 14, 2021
運用期間 4.7 years
タイプ internet

技術仕様

分類 Payload
質量 148.00 kg
乾燥質量 140.00 kg
総質量 148.00 kg
長さ 1.30 m
直径 1.00 m
スパン 5.00 m
形状 Trapezoid+2 pan
製造者 ONEWUS
バスタイプ ARROW
フェーズステータス In Orbit
所有者/国 ONEWEBN/UK

Most Searched